STARLINK-32659 (62427 NORAD) Tracking and Keplerian Element Data

This shows tracking and keplerian element data for the satellite.

Feedback or suggestion? Click here.




ElementValue
Catalog62427
NameSTARLINK-32659
Epoch Orbit675
Epoch Day35.10614484
Epoch Year2025
RAAN59.079
Inclination43.0035
Eccentricity0.000149
Argument of Perigee267.1834
Mean Anonmoly92.8851
Mean Motion15.40720725
Decay Rate-7.061E-05
L11 62427U 24249U 25035.10614484 -.00007061 00000+0 -16180-3 0 9999
L22 62427 43.0035 59.0790 0001490 267.1834 92.8851 15.40720725 6757



Live tracking and technical data element details for STARLINK-32659 (NORAD 62427). STARLINK-32659 can be tracked NOW for your location showing map with azimuth and elevation plus other details from your city location.







IsCatalogInMostPopularTable: catalog: 62427, numindb: 17
Update: records affected: 1



GetName: 62427 STARLINK-32659

Hit Count: updated at: Mon, 19 May 2025 02:56:20 GMT